{"data":{"norad_id":62283,"intl_designator":"2024-237S","name":"STARLINK-33547","alt_names":[],"object_type":"PAYLOAD","status":"ACTIVE","operator":null,"country":"US","launch_date":"2024-12-08","launch_site_code":"AFETR","launch_vehicle":null,"mission":null,"orbit_class":"UNKNOWN","rcs_meters":null,"size_class":null,"mass_kg":null,"dimensions":null,"purposes":["comms"],"wikipedia_slug":null,"has_3d_model":false,"image_url":null,"decayed_at":null,"tle_current":{"epoch":"2026-09-21T03:59:38.554944Z","epoch_age_seconds":120107,"freshness":"FRESH","line1":"1 62283U 24237S   26264.16641846  .00012810  00000+0  47388-3 0  9999","line2":"2 62283  43.0048 181.5013 0001708 262.7217  97.3441 15.27605217101213","mean_motion":15.27605217,"eccentricity":0.0001708,"inclination_deg":43.0048,"raan_deg":181.5013,"arg_perigee_deg":262.7217,"mean_anomaly_deg":97.3441,"bstar":0.00047388,"rev_number":10121,"period_min":94.265192601787,"perigee_km":481.80171062012,"apogee_km":484.14546599709,"semimajor_km":6861.1105883086,"source":"CELESTRAK","updated_at":"2026-09-22T09:00:49.568977Z"}}}